Skip Page Navigation
NASA JPL Caltech
NASA Logo - Jet Propulsion Laboratory + View the NASA Portal
+ Center for Near-Earth Object Studies
JPL Home Earth Solar System Stars & Galaxies Technology
JPL Solar System Dynamics
BODIES ORBITS EPHEMERIDES TOOLS PHYSICAL DATA DISCOVERY FAQ SITE MAP
JPL Small-Body Database Browser
Search: [ help ]  
452069 (2014 OD334)
Classification: Main-belt Asteroid          SPK-ID: 2452069
Ephemeris | Orbit Diagram | Orbital Elements | Mission Design | Physical Parameters | Discovery Circumstances | Close-Approach Data ]

[ show orbit diagram ]
Orbital Elements at Epoch 2459000.5 (2020-May-31.0) TDB
Reference: JPL 16 (heliocentric ecliptic J2000)
 Element Value Uncertainty (1-sigma)   Units 
e .1337534785532778 1.0474e-07  
a 3.05373892608584 1.6805e-07 au
q 2.645290722128308 2.3703e-07 au
i 10.55598583076349 7.0582e-06 deg
node 238.6985381362929 4.3915e-05 deg
peri 87.16544184587534 5.1884e-05 deg
M 23.57299870851533 4.7107e-05 deg
tp 2458872.868281708992
(2020-Jan-24.36828171)
0.00024628 TDB
period 1949.154587963613
5.34
0.0001609
4.405e-07
d
yr
n .1846954583402804 1.5246e-08 deg/d
Q 3.462187130043372 1.9053e-07 au
  Orbit Determination Parameters
   # obs. used (total)      111  
   data-arc span      3204 days (8.77 yr)  
   first obs. used      2008-05-08  
   last obs. used      2017-02-14  
   planetary ephem.      DE431  
   SB-pert. ephem.      SB431-N16  
   condition code      0  
   norm. resid. RMS      .49448  
   source      ORB  
   producer      Otto Matic  
   solution date      2017-Apr-09 10:53:36  

Additional Information
 Earth MOID = 1.66071 au 
 Jupiter MOID = 1.92882 au 
 T_jup = 3.197 
[ show covariance matrix ]

Ephemeris | Orbit Diagram | Orbital Elements | Mission Design | Physical Parameters | Discovery Circumstances | Close-Approach Data ]

Physical Parameter Table
Parameter Symbol Value Units Sigma Reference Notes
absolute magnitude H 15.9   n/a MPO477162  

452069 (2014 OD334)          Discovered 2008-May-08 by Mt. Lemmon Survey at Mount Lemmon
Reference: Last Updated: 2015-11-30

[ show close-approach data ]
Ephemeris | Orbit Diagram | Orbital Elements | Mission Design | Physical Parameters | Discovery Circumstances | Close-Approach Data ]
ABOUT SSD CREDITS/AWARDS PRIVACY/COPYRIGHT GLOSSARY LINKS
FirstGov 2020-Aug-05 19:54 UT
(server date/time)  
NASA Home Page
Site Manager:   Ryan S. Park
Webmaster  Alan B. Chamberlin